星链-34831 (STARLINK-34831)

导读

STARLINK-34831是美国太空探索技术公司(SpaceX)星链(Starlink)星座的组网卫星,于2025年8月27日由美国发射升空。该卫星属于Starlink星座低轨卫星组网部分,主要承担为全球提供高速互联网接入服务的任务,进一步推进星链星座的全球覆盖进程,增强星座网络服务稳定性与覆盖能力。

基本信息
目录编号:
65345
目录名称:
STARLINK-34831
国际标识:
2025-189Y
轨道中心:
EARTH
卫星名称:
星链-34831
卫星全名:
星链-34831 (STARLINK-34831)
卫星状态:
在轨 (已飞行290 天)
发射日期:
2025-08-27 UTC
国别 :
美国 (US)
星等 :
--
轨道信息
数据来源 国际轨道数据
星历时间: 2026-06-13T12:43:08+0800
13小时前
查看轨道信息
半长轴: 6848.817km
偏心率: 0.0001327
轨道倾角: 53.158°
近地点辐角 95.421°
升交点赤经 122.814°
平近点角 264.695°
近地点: 469.771km
远地点: 471.589km
周期: 94.012分钟
每日圈数: 15.317202
详细信息
固有亮度:
5
最大亮度:
2.5
卫星平台:
Starlink V1.0
覆盖范围:
全球
运营商:
太空探索技术公司
运营商所在国:
美国
制造商(研发单位):
太空探索技术公司
制造商所在国:
美国
使用方式:
暂无
卫星简介
Starlink 计划是 SpaceX 推出的全球卫星互联网项目,通过发射低轨道卫星,为全球尤其是偏远地区提供高速、低延迟的互联网服务。自 2019 年起,Starlink 已部署数千颗卫星,旨在缩小全球数字鸿沟,推动互联网普及。该项目还为军事、航空等行业提供通信支持,带来广泛经济效益。
2D轨道图
3D轨道图
轨道高度分析图
轨道倾角分析图
轨道综合分析图
查看轨道综合分析图